This is the latest recevied weather packets stored in our database for station/object SM4JDW-10. If no packets are shown the sender has not sent any weather packets the latest 10 day(s).
| Time | Temp. | Humidity | Pressure | Rain* | Wind** | Luminosity | Snow |
|---|---|---|---|---|---|---|---|
| 1788000547 | 16.67° C | 80% | 1002.5 hPa | - | - | - | - |
| 1787998749 | 16.11° C | 80% | 1002.3 hPa | - | - | - | - |
| 1787996946 | 16.11° C | 81% | 1002.4 hPa | - | - | - | - |
| 1787995146 | 16.11° C | 81% | 1002.2 hPa | - | - | - | - |
| 1787993347 | 15.56° C | 81% | 1002.3 hPa | - | - | - | - |
| 1787991547 | 15.56° C | 80% | 1002.4 hPa | - | - | - | - |
| 1787989747 | 15° C | 79% | 1002.6 hPa | - | - | - | - |
| 1787987947 | 15° C | 81% | 1002.4 hPa | - | - | - | - |
| 1787986147 | 15° C | 79% | 1002.4 hPa | - | - | - | - |
| 1787984346 | 15° C | 80% | 1002.4 hPa | - | - | - | - |
| 1787982547 | 15° C | 77% | 1002.5 hPa | - | - | - | - |
| 1787980746 | 15° C | 78% | 1002.8 hPa | - | - | - | - |
| 1787978946 | 15° C | 78% | 1003.2 hPa | - | - | - | - |
| 1787977146 | 15° C | 77% | 1003.5 hPa | - | - | - | - |
| 1787975346 | 15° C | 79% | 1003.7 hPa | - | - | - | - |
| 1787973546 | 15° C | 79% | 1004 hPa | - | - | - | - |
| 1787971746 | 15° C | 76% | 1004.4 hPa | - | - | - | - |
| 1787969946 | 15° C | 77% | 1004.7 hPa | - | - | - | - |
| 1787968146 | 15° C | 76% | 1005.1 hPa | - | - | - | - |
| 1787966346 | 15° C | 75% | 1006.2 hPa | - | - | - | - |
| 1787964546 | 15.56° C | 74% | 1007 hPa | - | - | - | - |
| 1787962746 | 15.56° C | 71% | 1007.3 hPa | - | - | - | - |
| 1787960945 | 15.56° C | 72% | 1008.2 hPa | - | - | - | - |
| 1787959145 | 16.11° C | 71% | 1008.8 hPa | - | - | - | - |
| 1787957345 | 16.11° C | 68% | 1009.4 hPa | - | - | - | - |
* Rain since midnight (hover to see other rain measurements)
** Current wind speed in m/s (hover to see current wind gust speed)